AV357 Weather Reports


time (UTC)temp
C
wind
direction
speed
KPH
gust
KPH
rain 1hr
cm
rain 24hr
cm
rain mn
cm
humidity
%
barometer
mb
20260507235003 12 69 0.0 3.2 0.00 0.00 0.00 88 1025.3
20260507234503 12 66 1.6 4.8 0.00 0.00 0.00 89 1025.3
20260507234003 12 57 1.6 4.8 0.00 0.00 0.00 88 1025.2
20260507233503 12 350 0.0 3.2 0.00 0.00 0.00 89 1025.2
20260507233213 12 322 0.0 3.2 0.00 0.00 0.00 89 1025.2
20260507232503 12 66 1.6 4.8 0.00 0.00 0.00 88 1025.4
20260507232213 12 73 1.6 4.8 0.00 0.00 0.00 88 1025.3
20260507231503 12 68 0.0 1.6 0.00 0.00 0.00 89 1025.2
20260507231003 12 69 0.0 1.6 0.00 0.00 0.00 88 1025.4
20260507230714 12 65 0.0 1.6 0.00 0.00 0.00 89 1025.4
20260507230003 12 52 0.0 1.6 0.00 0.00 0.00 88 1025.2
20260507225504 12 45 0.0 1.6 0.00 0.00 0.00 87 1025.4
20260507225003 12 0 0.0 0.0 0.00 0.00 0.00 88 1025.1
20260507224504 12 0 0.0 0.0 0.00 0.00 0.00 87 1025.2
20260507224003 12 0 0.0 0.0 0.00 0.00 0.00 88 1025.2
20260507223503 12 0 0.0 0.0 0.00 0.00 0.00 87 1025.2
20260507223003 12 46 0.0 1.6 0.00 0.00 0.00 86 1025.2
20260507222503 12 46 0.0 1.6 0.00 0.00 0.00 86 1024.9
20260507222003 13 0 0.0 0.0 0.00 0.00 0.00 83 1024.8
20260507221503 13 0 0.0 0.0 0.00 0.00 0.00 83 1024.8
20260507221003 13 0 0.0 0.0 0.00 0.00 0.00 83 1024.8
20260507220503 13 72 0.0 1.6 0.00 0.00 0.00 82 1024.7
20260507220004 13 70 0.0 1.6 0.00 0.00 0.00 81 1025.0
20260507215503 13 70 0.0 1.6 0.00 0.00 0.00 81 1024.8
20260507215003 13 72 0.0 1.6 0.00 0.00 0.00 80 1024.7
20260507214503 13 0 0.0 0.0 0.00 0.00 0.00 80 1024.6
20260507214003 13 65 0.0 1.6 0.00 0.00 0.00 81 1024.5
20260507213503 13 65 0.0 1.6 0.00 0.00 0.00 82 1024.7
20260507213003 13 64 0.0 1.6 0.00 0.00 0.00 80 1024.4
20260507212503 13 67 0.0 3.2 0.00 0.00 0.00 80 1024.5
20260507212003 13 68 1.6 3.2 0.00 0.00 0.00 81 1024.6
20260507211503 13 69 0.0 3.2 0.00 0.00 0.00 80 1024.5
20260507211003 13 68 0.0 1.6 0.00 0.00 0.00 79 1024.4
20260507210503 13 66 0.0 3.2 0.00 0.00 0.00 81 1024.2
20260507210214 13 67 1.6 3.2 0.00 0.00 0.00 81 1024.5
20260507205503 13 68 1.6 3.2 0.00 0.00 0.00 81 1024.5
20260507205003 13 71 0.0 3.2 0.00 0.00 0.00 80 1024.4
20260507204503 13 52 0.0 1.6 0.00 0.00 0.00 78 1024.4
20260507204003 13 52 0.0 1.6 0.00 0.00 0.00 78 1024.3
20260507203503 13 66 0.0 1.6 0.00 0.00 0.00 78 1024.3
20260507203003 13 68 0.0 1.6 0.00 0.00 0.00 78 1024.3
20260507202503 13 69 0.0 1.6 0.00 0.00 0.00 79 1024.2
20260507202004 13 66 0.0 1.6 0.00 0.00 0.00 78 1023.9
20260507201713 13 63 0.0 1.6 0.00 0.00 0.00 78 1024.1
20260507201003 13 0 0.0 0.0 0.00 0.00 0.00 76 1024.2
20260507200503 13 66 0.0 3.2 0.00 0.00 0.00 77 1023.8
20260507200003 13 67 1.6 3.2 0.00 0.00 0.00 79 1023.9
20260507195503 13 71 1.6 3.2 0.00 0.00 0.00 79 1024.0
20260507195003 13 74 3.2 3.2 0.00 0.00 0.00 79 1023.8
20260507194503 13 72 1.6 3.2 0.00 0.00 0.00 78 1023.8
20260507194003 13 68 0.0 3.2 0.00 0.00 0.00 75 1023.6
20260507193504 13 66 0.0 1.6 0.00 0.00 0.00 76 1023.5
20260507193003 13 69 1.6 4.8 0.00 0.00 0.00 77 1023.5
20260507192503 13 71 1.6 4.8 0.00 0.00 0.00 77 1023.5
20260507192003 13 73 0.0 3.2 0.00 0.00 0.00 75 1023.3
20260507191712 13 68 0.0 3.2 0.00 0.00 0.00 75 1023.3
20260507191003 13 67 1.6 3.2 0.00 0.00 0.00 76 1022.9
20260507190504 13 67 1.6 3.2 0.00 0.00 0.00 74 1022.9
20260507190004 13 66 0.0 3.2 0.00 0.00 0.00 76 1023.1
20260507185503 13 67 1.6 3.2 0.00 0.00 0.00 78 1023.1
20260507185003 14 70 1.6 3.2 0.00 0.00 0.00 77 1022.9
20260507184504 14 73 1.6 3.2 0.00 0.00 0.00 76 1022.8
20260507184003 15 73 0.0 3.2 0.00 0.00 0.00 75 1022.6
20260507183504 15 62 0.0 1.6 0.00 0.00 0.00 73 1022.6
20260507183003 15 62 0.0 1.6 0.00 0.00 0.00 73 1022.4
20260507182503 15 62 0.0 3.2 0.00 0.00 0.00 73 1022.6
20260507182003 14 64 0.0 3.2 0.00 0.00 0.00 72 1022.5
20260507181503 14 68 1.6 3.2 0.00 0.00 0.00 72 1022.4
20260507181213 14 71 1.6 3.2 0.00 0.00 0.00 72 1022.4
20260507180714 14 72 1.6 3.2 0.00 0.00 0.00 72 1022.6
20260507180003 15 70 1.6 3.2 0.00 0.00 0.00 72 1022.1
20260507175503 15 69 1.6 3.2 0.00 0.00 0.00 72 1022.2
20260507175003 15 69 1.6 4.8 0.00 0.00 0.00 71 1022.4
20260507174503 15 69 1.6 4.8 0.00 0.00 0.00 70 1022.2
20260507174003 15 68 1.6 3.2 0.00 0.00 0.00 69 1021.9
20260507173504 15 68 1.6 3.2 0.00 0.00 0.00 68 1021.9
20260507173004 15 70 3.2 4.8 0.00 0.00 0.00 68 1021.8
20260507172503 16 74 3.2 4.8 0.00 0.00 0.00 67 1021.8
20260507172003 16 77 1.6 4.8 0.00 0.00 0.00 66 1021.7
20260507171503 16 74 1.6 4.8 0.00 0.00 0.00 66 1021.7
20260507171003 17 50 0.0 1.6 0.00 0.00 0.00 64 1021.0
20260507170503 17 283 0.0 1.6 0.00 0.00 0.00 62 1021.3
20260507170004 17 199 0.0 3.2 0.00 0.00 0.00 62 1021.3
20260507165503 17 241 0.0 3.2 0.00 0.00 0.00 60 1021.3
20260507165003 17 282 1.6 3.2 0.00 0.00 0.00 61 1021.2
20260507164503 17 224 1.6 4.8 0.00 0.00 0.00 60 1021.1
20260507164212 17 173 1.6 4.8 0.00 0.00 0.00 59 1021.2
20260507163503 18 141 1.6 4.8 0.00 0.00 0.00 48 1021.2
20260507163212 18 135 1.6 4.8 0.00 0.00 0.00 51 1021.1
20260507162503 18 77 1.6 9.7 0.00 0.00 0.00 52 1020.7
20260507162003 18 74 1.6 9.7 0.00 0.00 0.00 52 1021.0
20260507161503 18 137 1.6 4.8 0.00 0.00 0.00 56 1021.0
20260507161003 17 130 1.6 6.4 0.00 0.00 0.00 55 1021.3
20260507160503 17 147 3.2 6.4 0.00 0.00 0.00 56 1021.1
20260507160003 17 149 1.6 6.4 0.00 0.00 0.00 55 1021.1
20260507155503 18 147 1.6 6.4 0.00 0.00 0.00 54 1020.9
20260507155003 17 163 3.2 9.7 0.00 0.00 0.00 55 1020.9
20260507154503 17 157 3.2 9.7 0.00 0.00 0.00 53 1020.9
20260507154003 17 145 3.2 9.7 0.00 0.00 0.00 55 1021.0
20260507153713 17 159 3.2 9.7 0.00 0.00 0.00 56 1021.2
20260507153004 17 176 4.8 9.7 0.00 0.00 0.00 57 1021.1
20260507152503 17 156 3.2 9.7 0.00 0.00 0.00 60 1021.0
20260507152003 17 166 3.2 9.7 0.00 0.00 0.00 57 1020.9
20260507151503 18 186 3.2 6.4 0.00 0.00 0.00 56 1020.8
20260507151214 18 224 3.2 11.3 0.00 0.00 0.00 56 1020.4
20260507150503 19 240 3.2 11.3 0.00 0.00 0.00 55 1020.5
20260507150214 19 222 3.2 9.7 0.00 0.00 0.00 55 1020.5
20260507145503 18 217 3.2 9.7 0.00 0.00 0.00 55 1020.8
20260507145003 19 198 3.2 9.7 0.00 0.00 0.00 51 1020.7
20260507144503 19 158 3.2 9.7 0.00 0.00 0.00 52 1020.6
20260507144214 19 150 3.2 9.7 0.00 0.00 0.00 53 1020.7
20260507143503 18 245 3.2 9.7 0.00 0.00 0.00 53 1020.8
20260507143003 18 230 3.2 9.7 0.00 0.00 0.00 53 1020.8
20260507142713 18 217 3.2 9.7 0.00 0.00 0.00 53 1020.7
20260507142003 18 204 3.2 9.7 0.00 0.00 0.00 55 1020.5
20260507141503 18 220 4.8 11.3 0.00 0.00 0.00 57 1020.9
20260507141003 18 216 4.8 12.9 0.00 0.00 0.00 56 1021.0
20260507140503 18 185 4.8 12.9 0.00 0.00 0.00 57 1021.1
20260507140213 18 153 4.8 11.3 0.00 0.00 0.00 56 1021.1
20260507135503 19 162 4.8 9.7 0.00 0.00 0.00 55 1021.0
20260507135003 18 144 4.8 11.3 0.00 0.00 0.00 56 1021.2
20260507134503 18 198 4.8 12.9 0.00 0.00 0.00 56 1021.0
20260507134003 18 228 4.8 12.9 0.00 0.00 0.00 56 1021.1
20260507133503 19 175 3.2 6.4 0.00 0.00 0.00 57 1021.2
20260507133003 18 182 3.2 11.3 0.00 0.00 0.00 59 1021.4
20260507132712 18 125 3.2 12.9 0.00 0.00 0.00 58 1021.3
20260507132213 18 84 4.8 14.5 0.00 0.00 0.00 60 1021.5
20260507131503 18 72 3.2 11.3 0.00 0.00 0.00 61 1021.5
20260507131003 18 41 1.6 6.4 0.00 0.00 0.00 60 1021.4
20260507130503 17 108 3.2 9.7 0.00 0.00 0.00 61 1021.6
20260507130003 18 103 3.2 9.7 0.00 0.00 0.00 61 1021.8
20260507125714 18 129 3.2 6.4 0.00 0.00 0.00 61 1021.4
20260507125003 18 193 3.2 6.4 0.00 0.00 0.00 58 1021.6
20260507124503 18 226 3.2 6.4 0.00 0.00 0.00 59 1021.8
20260507124003 18 104 1.6 6.4 0.00 0.00 0.00 59 1021.6
20260507123503 17 142 1.6 6.4 0.00 0.00 0.00 58 1021.7
20260507123003 17 150 3.2 6.4 0.00 0.00 0.00 60 1022.0
20260507122503 17 198 3.2 9.7 0.00 0.00 0.00 60 1022.0
20260507122004 17 219 4.8 9.7 0.00 0.00 0.00 61 1022.1
20260507121503 17 214 3.2 9.7 0.00 0.00 0.00 62 1021.8
20260507121213 17 234 3.2 9.7 0.00 0.00 0.00 61 1021.9
20260507120503 17 182 3.2 9.7 0.00 0.00 0.00 63 1022.0
20260507120213 17 173 3.2 9.7 0.00 0.00 0.00 63 1022.0
20260507115503 17 186 3.2 9.7 0.00 0.00 0.00 63 1022.2
20260507115003 16 179 3.2 9.7 0.00 0.00 0.00 65 1022.3
20260507114503 16 239 3.2 11.3 0.00 0.00 0.00 64 1022.5
20260507114003 16 225 3.2 11.3 0.00 0.00 0.00 63 1022.4
20260507113503 16 183 1.6 6.4 0.00 0.00 0.00 63 1022.3
20260507113003 16 194 1.6 6.4 0.00 0.00 0.00 63 1022.2
20260507112503 16 200 1.6 4.8 0.00 0.00 0.00 65 1022.6
20260507112003 16 174 1.6 9.7 0.00 0.00 0.00 64 1022.7
20260507111504 16 231 3.2 9.7 0.00 0.00 0.00 66 1022.7
20260507111003 16 216 3.2 9.7 0.00 0.00 0.00 67 1022.8
20260507110503 16 155 1.6 9.7 0.00 0.00 0.00 67 1022.8
20260507110214 16 133 1.6 4.8 0.00 0.00 0.00 67 1023.1
20260507105503 16 123 3.2 6.4 0.00 0.00 0.00 66 1023.0
20260507105003 16 125 3.2 6.4 0.00 0.00 0.00 68 1023.2
20260507104713 16 126 3.2 11.3 0.00 0.00 0.00 68 1023.1
20260507104214 15 135 3.2 11.3 0.00 0.00 0.00 69 1023.1
20260507103503 15 137 3.2 6.4 0.00 0.00 0.00 67 1023.1
20260507103003 16 165 3.2 11.3 0.00 0.00 0.00 68 1022.9
20260507102503 15 147 3.2 11.3 0.00 0.00 0.00 68 1023.0
20260507102003 16 146 4.8 12.9 0.00 0.00 0.00 67 1022.9
20260507101503 16 173 4.8 12.9 0.00 0.00 0.00 67 1023.0
20260507101003 16 204 3.2 12.9 0.00 0.00 0.00 66 1022.7
20260507100503 15 168 4.8 12.9 0.00 0.00 0.00 69 1023.1
20260507100003 15 170 4.8 17.7 0.00 0.00 0.00 69 1023.1
20260507095713 16 187 4.8 17.7 0.00 0.00 0.00 69 1023.1
20260507095214 16 211 4.8 20.9 0.00 0.00 0.00 69 1022.9
20260507094503 15 160 3.2 14.5 0.00 0.00 0.00 70 1023.1
20260507094003 15 166 3.2 11.3 0.00 0.00 0.00 70 1023.2
20260507093503 16 116 3.2 6.4 0.00 0.00 0.00 68 1022.9
20260507093004 16 97 3.2 12.9 0.00 0.00 0.00 66 1022.6
20260507092713 16 114 3.2 12.9 0.00 0.00 0.00 69 1022.7
20260507092003 16 130 3.2 6.4 0.00 0.00 0.00 71 1022.6
20260507091503 16 135 3.2 6.4 0.00 0.00 0.00 68 1022.8
20260507091214 15 144 3.2 9.7 0.00 0.00 0.00 70 1023.0
20260507090503 16 129 1.6 9.7 0.00 0.00 0.00 69 1022.7
20260507090004 16 108 1.6 4.8 0.00 0.00 0.00 67 1022.8
20260507085503 16 130 1.6 4.8 0.00 0.00 0.00 69 1022.7
20260507085213 16 125 0.0 4.8 0.00 0.00 0.00 67 1022.8
20260507084503 15 123 0.0 3.2 0.00 0.00 0.00 70 1023.1
20260507084003 15 129 1.6 4.8 0.00 0.00 0.00 71 1023.0
20260507083503 15 137 1.6 4.8 0.00 0.00 0.00 72 1023.1
20260507083004 15 51 0.0 1.6 0.00 0.00 0.00 70 1022.7
20260507082503 15 68 0.0 3.2 0.00 0.00 0.00 69 1022.8
20260507082003 14 68 1.6 3.2 0.00 0.00 0.00 74 1023.3
20260507081503 13 70 1.6 4.8 0.00 0.00 0.00 79 1023.8
20260507081213 12 71 1.6 4.8 0.00 0.00 0.00 79 1023.6
20260507080714 13 73 1.6 3.2 0.00 0.00 0.00 76 1023.5
20260507080004 11 70 1.6 3.2 0.00 0.00 0.00 81 1024.1
20260507075503 10 72 1.6 3.2 0.00 0.00 0.00 82 1024.4
20260507075003 10 74 1.6 3.2 0.00 0.00 0.00 81 1024.2
20260507074503 10 75 0.0 3.2 0.00 0.00 0.00 84 1024.5
20260507074003 10 81 0.0 3.2 0.00 0.00 0.00 81 1024.5
20260507073503 10 94 0.0 1.6 0.00 0.00 0.00 83 1024.4
20260507073003 10 79 0.0 1.6 0.00 0.00 0.00 82 1024.6
20260507072503 10 77 0.0 3.2 0.00 0.00 0.00 81 1024.6
20260507072003 10 80 0.0 3.2 0.00 0.00 0.00 80 1024.6
20260507071504 10 0 0.0 0.0 0.00 0.00 0.00 78 1024.4
20260507071003 10 0 0.0 0.0 0.00 0.00 0.00 78 1024.6
20260507070503 10 0 0.0 0.0 0.00 0.00 0.00 77 1024.5
20260507070007 10 292 0.0 1.6 0.00 0.00 0.00 78 1024.4
20260507065503 10 293 0.0 1.6 0.00 0.00 0.00 79 1024.5
20260507065213 10 297 0.0 1.6 0.00 0.00 0.00 80 1024.4
20260507064503 9 73 1.6 3.2 0.00 0.00 0.00 83 1024.8
20260507064213 9 73 1.6 3.2 0.00 0.00 0.00 84 1024.9
20260507063503 10 69 0.0 3.2 0.00 0.00 0.00 83 1024.4
20260507063003 10 45 0.0 1.6 0.00 0.00 0.00 81 1024.2
20260507062503 9 303 0.0 1.6 0.00 0.00 0.00 82 1024.4
20260507062003 9 309 0.0 1.6 0.00 0.00 0.00 79 1024.4
20260507061503 10 58 0.0 1.6 0.00 0.00 0.00 79 1024.3
20260507061212 10 58 0.0 1.6 0.00 0.00 0.00 79 1024.3
20260507060503 11 49 0.0 1.6 0.00 0.00 0.00 76 1023.8
20260507060003 11 324 0.0 1.6 0.00 0.03 0.00 76 1023.9
20260507055713 10 318 0.0 1.6 0.00 0.03 0.00 76 1024.4
20260507055004 9 322 0.0 1.6 0.00 0.05 0.00 79 1024.1
20260507054503 10 37 0.0 1.6 0.00 0.05 0.00 76 1024.1
20260507054003 9 37 0.0 1.6 0.00 0.05 0.00 80 1024.2
20260507053713 8 40 0.0 1.6 0.00 0.05 0.00 80 1024.5
20260507053004 7 61 0.0 1.6 0.00 0.08 0.00 83 1024.5
20260507052503 7 291 0.0 3.2 0.00 0.08 0.00 85 1024.6
20260507052003 7 295 0.0 3.2 0.00 0.08 0.00 86 1024.6
20260507051503 7 309 0.0 1.6 0.00 0.08 0.00 85 1024.5
20260507051003 7 309 0.0 1.6 0.00 0.10 0.00 85 1024.4
20260507050503 7 298 0.0 1.6 0.00 0.10 0.00 85 1023.9
20260507050003 7 306 0.0 1.6 0.00 0.10 0.00 86 1024.4
20260507045503 7 307 0.0 1.6 0.00 0.10 0.00 88 1024.4
20260507045003 7 311 0.0 3.2 0.00 0.13 0.00 90 1024.5
20260507044503 6 310 1.6 3.2 0.00 0.15 0.00 90 1024.3
20260507044214 7 308 0.0 3.2 0.00 0.20 0.00 90 1024.4
20260507043503 7 0 0.0 0.0 0.00 0.33 0.00 92 1024.0
20260507043003 6 0 0.0 0.0 0.00 0.48 0.00 93 1024.1
20260507042503 6 291 0.0 1.6 0.00 0.61 0.00 93 1024.1
20260507042003 6 291 0.0 1.6 0.00 0.69 0.00 93 1024.1
20260507041503 6 0 0.0 0.0 0.00 0.76 0.00 92 1024.1
20260507041003 6 0 0.0 0.0 0.00 0.81 0.00 92 1024.1
20260507040503 6 0 0.0 0.0 0.00 0.84 0.00 92 1024.1
20260507040003 7 0 0.0 0.0 0.00 0.86 0.00 91 1024.0
20260507035503 6 0 0.0 0.0 0.00 0.89 0.00 91 1023.9
20260507035213 6 0 0.0 0.0 0.00 0.89 0.00 91 1024.0
20260507034503 6 0 0.0 0.0 0.00 0.94 0.00 91 1024.0
20260507034003 6 0 0.0 0.0 0.00 0.97 0.00 93 1024.0
20260507033503 7 0 0.0 0.0 0.00 1.02 0.00 93 1023.8
20260507033003 7 0 0.0 0.0 0.00 1.07 0.00 93 1023.8
20260507032503 7 0 0.0 0.0 0.00 1.07 0.00 93 1023.8
20260507032003 7 304 0.0 1.6 0.00 1.09 0.00 93 1023.8
20260507031503 7 304 0.0 1.6 0.00 1.09 0.00 93 1023.7
20260507031003 7 0 0.0 0.0 0.00 1.09 0.00 93 1023.7
20260507030503 7 74 0.0 1.6 0.00 1.09 0.00 93 1023.7
20260507030003 7 74 0.0 1.6 0.00 1.09 0.00 92 1023.8
20260507025503 7 73 0.0 1.6 0.00 1.09 0.00 92 1023.8
20260507025213 7 70 0.0 1.6 0.00 1.09 0.00 91 1023.4
20260507024503 7 310 0.0 1.6 0.00 1.09 0.00 89 1023.4
20260507024003 7 321 0.0 1.6 0.00 1.09 0.00 89 1023.6
20260507023503 7 25 0.0 1.6 0.00 1.09 0.00 90 1023.7
20260507023003 7 53 0.0 1.6 0.00 1.09 0.00 91 1023.6
20260507022503 7 39 0.0 1.6 0.00 1.09 0.00 88 1023.4
20260507022003 8 306 0.0 1.6 0.00 1.09 0.00 86 1023.6
20260507021503 8 302 0.0 1.6 0.00 1.09 0.00 87 1023.7
20260507021003 8 0 0.0 0.0 0.00 1.09 0.00 87 1023.6
20260507020503 8 0 0.0 0.0 0.00 1.09 0.00 87 1023.5
20260507020003 8 0 0.0 0.0 0.00 1.09 0.00 88 1023.7
20260507015503 8 0 0.0 0.0 0.00 1.09 0.00 88 1023.4
20260507015003 7 303 0.0 1.6 0.00 1.09 0.00 88 1023.5
20260507014503 7 301 1.6 3.2 0.00 1.09 0.00 89 1023.4
20260507014003 7 299 1.6 3.2 0.00 1.09 0.00 90 1023.6
20260507013503 7 296 0.0 1.6 0.00 1.09 0.00 91 1023.5
20260507013003 7 0 0.0 0.0 0.00 1.09 0.00 91 1023.3
20260507012503 7 0 0.0 0.0 0.00 1.09 0.00 92 1023.5
20260507012003 7 0 0.0 0.0 0.00 1.09 0.00 92 1023.3
20260507011503 7 55 0.0 1.6 0.00 1.09 0.00 92 1023.1
20260507011003 7 55 0.0 1.6 0.00 1.09 0.00 92 1023.3
20260507010714 7 57 0.0 1.6 0.00 1.09 0.00 91 1023.1
20260507010003 7 60 1.6 3.2 0.00 1.09 0.00 93 1023.4
20260507005503 7 62 0.0 3.2 0.00 1.09 0.00 92 1023.4
20260507005003 7 304 0.0 1.6 0.00 1.09 0.00 90 1023.2
20260507004503 7 295 1.6 1.6 0.00 1.09 0.00 88 1023.2
20260507004003 7 293 1.6 1.6 0.00 1.09 0.00 91 1023.3
20260507003713 7 295 0.0 1.6 0.00 1.09 0.00 91 1023.2
20260507003214 7 299 0.0 1.6 0.00 1.09 0.00 92 1023.0
20260507002503 8 40 0.0 1.6 0.00 1.09 0.00 92 1023.2
20260507002003 8 72 0.0 1.6 0.00 1.12 0.00 92 1023.0
20260507001503 8 0 0.0 0.0 0.00 1.12 0.00 91 1022.9
20260507001003 8 55 0.0 1.6 0.00 1.12 0.00 92 1022.8
20260507000503 8 58 0.0 1.6 0.00 1.14 0.00 92 1023.0
20260507000003 8 66 0.0 1.6 0.00 1.14 0.00 91 1022.6
20260506235713 8 0 0.0 0.0 0.00 1.14 0.00 90 1022.8